Binghamton, NY

6:05 AM EST on November 14, 2019 (GMT -0500)
Binghamton Regional-Link

Weather History for KBGM - September, 2019

Change the Weather History Date:

Sunday, September 29, 2019

  Actual Average Record
Temperature  
Mean Temperature 60 °F 54 °F  
Max Temperature 68 °F 63 °F 79 °F (1954)
Min Temperature 51 °F 46 °F 27 °F (2000)
Degree Days  
Heating Degree Days 5 11  
Month to date heating degree days 125 183  
Since 1 July heating degree days 162 246  
Cooling Degree Days 0 0  
Month to date cooling degree days 22 29  
Year to date cooling degree days 384 377  
Growing Degree Days 10 (Base 50)    
Moisture  
Dew Point 51 °F    
Average Humidity 65    
Maximum Humidity 93    
Minimum Humidity 37    
Precipitation  
Precipitation 0.00 in 0.12 in 1.66 in (2011)
Month to date precipitation 1.72 3.50  
Year to date precipitation 30.51 29.71  
Snow  
Snow 0.00 in 0.00 in T in (1970)
Month to date snowfall 0.0 0.0  
Since 1 July snowfall 0.0 0.0  
Since 1 September snowfall 0.0 0.0  
Snow Depth 0.00 in    
Sea Level Pressure  
Sea Level Pressure 30.28 in    
Wind  
Wind Speed 8 mph (North)    
Max Wind Speed 16 mph    
Max Gust Speed 23 mph    
Visibility 10 miles    
Events      
T = Trace of Precipitation, MM = Missing Value Source: NWS Daily Summary

Daily Weather History Graph

Daily Weather History Graph

Search for Another Location

Airport or City:

Astronomy

Sep. 29, 2019 Rise Set
Actual Time 6:58 AM EDT 6:49 PM EDT
Civil Twilight 6:30 AM EDT 7:17 PM EDT
Nautical Twilight 5:58 AM EDT 7:49 PM EDT
Astronomical Twilight 5:25 AM EDT 8:22 PM EDT
Moon 7:46 AM EDT (9/29) 7:47 PM EDT (9/29)
Length of Visible Light 12h 46m
Length of Day
11h 50m
New Moon, 1% of the Moon is Illuminated
Sep 29
New Moon
Oct 5
First Quarter
Oct 13
Full
Oct 21
Last Quarter
Oct 27
New

Hourly Weather History & Observations

Time (EDT) Temp. Dew Point Humidity Pressure Visibility Wind Dir Wind Speed Gust Speed Precip Events Conditions
12:09 AM 64.0 °F 62.1 °F 93% 30.19 in 10.0 mi NW 8.1 mph - N/A   Overcast
12:53 AM 63.0 °F 60.1 °F 90% 30.17 in 10.0 mi NNW 10.4 mph - N/A   Overcast
1:34 AM 62.1 °F 60.1 °F 93% 30.20 in 10.0 mi NNW 9.2 mph - N/A   Overcast
1:53 AM 62.1 °F 60.1 °F 93% 30.18 in 10.0 mi NNW 8.1 mph - N/A   Overcast
2:36 AM 61.0 °F 60.1 °F 97% 30.21 in 6.0 mi NNW 9.2 mph - N/A   Overcast
2:53 AM 60.1 °F 57.9 °F 93% 30.19 in 9.0 mi North 15.0 mph 23.0 mph N/A   Overcast
3:22 AM 60.1 °F 55.9 °F 86% 30.22 in 10.0 mi North 10.4 mph - N/A   Overcast
3:53 AM 59.0 °F 55.9 °F 90% 30.21 in 10.0 mi North 9.2 mph - N/A   Overcast
4:01 AM 59.0 °F 55.9 °F 90% 30.23 in 10.0 mi North 10.4 mph - N/A   Overcast
4:53 AM 59.0 °F 55.9 °F 90% 30.22 in 10.0 mi North 10.4 mph - N/A   Overcast
5:53 AM 57.9 °F 55.0 °F 90% 30.25 in 10.0 mi North 11.5 mph - N/A   Overcast
6:11 AM 57.0 °F 54.0 °F 89% 30.27 in 10.0 mi NNE 9.2 mph - N/A   Overcast
6:53 AM 55.0 °F 52.0 °F 89% 30.27 in 10.0 mi North 6.9 mph - N/A   Scattered Clouds
7:53 AM 55.0 °F 52.0 °F 89% 30.29 in 10.0 mi NNE 10.4 mph - N/A   Clear
8:18 AM 55.9 °F 52.0 °F 87% 30.31 in 10.0 mi NNE 8.1 mph - N/A   Partly Cloudy
8:53 AM 57.9 °F 51.1 °F 78% 30.32 in 10.0 mi NNE 10.4 mph - N/A   Mostly Cloudy
9:41 AM 55.9 °F 50.0 °F 80% 30.36 in 10.0 mi North 10.4 mph - N/A   Overcast
9:53 AM 55.9 °F 50.0 °F 80% 30.36 in 10.0 mi North 10.4 mph - N/A   Mostly Cloudy
10:26 AM 59.0 °F 48.9 °F 69% 30.36 in 10.0 mi NNE 10.4 mph - N/A   Scattered Clouds
11:53 AM 61.0 °F 46.9 °F 60% 30.35 in 10.0 mi North 5.8 mph - N/A   Partly Cloudy
12:53 PM 63.0 °F 46.9 °F 56% 30.34 in 10.0 mi North 8.1 mph - N/A   Clear
1:53 PM 64.9 °F 46.0 °F 50% 30.32 in 10.0 mi Variable 3.5 mph - N/A   Clear
2:53 PM 66.9 °F 46.0 °F 47% 30.31 in 10.0 mi ENE 6.9 mph - N/A   Clear
3:53 PM 68.0 °F 45.0 °F 43% 30.30 in 10.0 mi NE 9.2 mph - N/A   Clear
4:53 PM 66.0 °F 39.0 °F 37% 30.30 in 10.0 mi NNE 5.8 mph - N/A   Clear
5:53 PM 64.0 °F 43.0 °F 46% 30.32 in 10.0 mi North 8.1 mph - N/A   Clear
6:53 PM 59.0 °F 46.9 °F 64% 30.33 in 10.0 mi NNW 9.2 mph - N/A   Clear
7:53 PM 57.0 °F 46.0 °F 67% 30.32 in 10.0 mi North 8.1 mph - N/A   Clear
8:53 PM 55.0 °F 45.0 °F 69% 30.33 in 10.0 mi NNE 8.1 mph - N/A   Clear
9:53 PM 54.0 °F 44.1 °F 69% 30.33 in 10.0 mi NE 6.9 mph - N/A   Clear
10:53 PM 52.0 °F 44.1 °F 74% 30.33 in 10.0 mi ENE 4.6 mph - N/A   Clear
11:53 PM 52.0 °F 44.1 °F 74% 30.33 in 10.0 mi ENE 4.6 mph - N/A   Partly Cloudy